SCP
0 0 0 0 0 0 0 0 0 0 0 0 0 0 0 0 1 1 0 0 0 0 0 1 2 3 2 1 1 1 0 0 0 0 0 0 1 1 1 1 1 1 1
1 0 0 0 0 0 0 0 0 1 1 1 1 0 0 0 0 0 0 0 0 0 0 1 1 1 1 1 1 1 1 1 1 1 1 0 1 1 1 1 1 1 1
1 1 0 0 0 0 1 1 1 1 1 0 0 0 0 0 0 0 0 0 0 0 0 1 0 0 1 0 0 0 0 0 1 1 0 0 0 1 1 1 1 1 1
1 1 1 0 1 0 0 0 0 0 0 0 0 0 0 0 0 0 0 0 0 0 0 0 0 0 0 0 0 0 0 0 0 0 0 0 1 1 1 1 1 1 1
1 1 1 0 0 0 1 0 0 0 0 0 0 0 0 0 0 0 0 0 0 0 0 0 0 0 0 0 0 0 0 0 0 0 0 0 0 0 1 1 1 1 1
1 1 1 1 1 1 0 0 0 0 0 0 0 0 0 0 0 0 0 0 0 0 0 0 0 0 0 0 0 0 0 0 0 0 0 0 0 0 0 1 1 1 2
1 1 1 1 1 0 0 0 0 0 0 0 0 0 0 0 0 0 0 -0 0 0 0 0 0 0 0 0 0 0 0 0 0 0 0 0 0 0 0 0 1 1 1
1 0 1 0 0 0 0 0 0 0 0 0 0 0 -0 0 0 0 0 0 0 0 0 0 0 0 0 0 0 0 0 0 0 0 0 0 0 0 0 1 1 1 1
0 0 0 0 0 0 0 0 0 0 0 0 0 0 0 0 0 0 0 0 0 0 0 0 0 0 0 0 0 0 0 0 0 0 0 0 0 0 0 0 0 1 1
0 0 0 0 0 0 0 0 0 0 0 0 0 0 0 0 0 0 0 0 0 0 0 0 0 0 0 0 0 0 0 0 0 0 0 0 0 0 0 0 0 0 1
0 0 0 0 0 0 0 0 0 0 0 0 0 0 0 0 0 0 0 0 0 0 0 0 0 0 0 0 0 0 0 0 0 0 0 0 0 0 0 0 0 0 1
0 0 0 0 0 0 0 0 0 0 0 0 0 0 0 0 0 0 0 0 0 0 0 0 0 0 0 0 0 0 0 0 0 0 0 0 0 0 0 0 0 0 0
0 0 0 0 0 0 0 0 0 0 0 0 0 0 0 0 0 0 0 0 0 0 0 0 0 0 0 0 0 0 0 0 0 0 0 0 0 0 0 0 0 0 0
0 0 0 0 0 0 0 0 0 0 0 0 0 0 0 0 0 0 0 0 0 0 0 0 0 0 0 0 0 0 0 0 0 0 0 0 0 0 0 0 0 0 0
0 0 0 0 0 0 0 0 0 0 0 0 0 0 0 0 0 0 0 0 0 0 0 0 0 0 0 0 0 0 0 0 0 0 0 0 0 0 0 0 0 0 0
0 0 0 0 0 0 0 0 0 0 0 0 0 0 0 0 0 0 0 0 0 0 0 0 0 0 0 0 0 0 0 0 0 0 0 0 0 0 0 0 0 0 0
0 0 0 0 0 0 0 0 0 0 0 0 0 0 0 0 0 0 0 0 0 0 0 0 0 0 0 0 0 0 0 0 0 0 0 0 0 0 0 0 0 0 0
0 0 0 0 0 0 0 0 0 0 0 0 0 0 0 0 0 0 0 0 0 0 0 0 0 0 0 0 0 0 0 0 0 0 0 0 0 0 0 0 0 0 0
0 0 0 0 0 0 0 0 0 0 0 0 0 0 0 0 0 0 0 0 0 0 0 0 0 0 0 0 0 0 0 0 0 -0 -0 0 0 0 0 0 0 0 0
0 0 0 0 0 0 0 0 0 0 0 0 0 0 0 0 0 0 0 0 0 0 0 0 0 0 0 0 0 0 0 0 0 0 -0 -0 0 0 0 0 0 0 0
0 0 0 0 0 0 0 0 0 0 0 0 0 0 0 0 0 0 0 0 0 0 0 0 0 0 0 0 0 0 0 0 0 0 0 0 0 0 0 0 0 0 0
0 0 0 0 0 0 0 0 0 0 0 0 0 0 0 0 0 0 0 0 0 0 0 0 0 0 0 0 0 0 0 0 0 0 0 0 0 0 0 0 0 0 0
0 0 0 0 0 0 0 0 0 0 0 0 0 0 0 0 0 0 0 0 0 0 0 0 0 0 0 0 0 0 0 0 0 0 0 0 0 0 0 0 0 0 0
0 0 0 0 0 0 0 0 0 0 0 0 0 0 0 0 0 0 0 0 0 0 0 0 0 0 0 0 0 0 0 0 0 0 0 0 0 0 0 0 0 0 0
0 0 0 0 0 0 0 0 0 0 0 0 -0 -0 0 0 0 0 0 0 0 0 0 0 0 0 0 0 0 0 0 0 0 0 0 0 0 0 0 0 0 0 0
0 0 0 0 0 0 0 0 0 0 0 0 0 0 0 0 0 0 0 0 0 0 0 0 0 0 0 0 0 0 0 0 0 0 0 0 0 0 0 0 0 0 0
Wind_Speed_500mb
38 36 36 37 38 41 44 42 39 36 35 34 34 34 32 31 30 29 30 30 30 32 37 41 37 29 28 35 39 41 41 45 47 50 53 51 52 56 52 53 52 54 52
40 38 37 35 37 41 41 40 37 34 32 34 35 33 32 32 33 31 32 32 42 40 39 36 22 24 28 38 46 43 42 45 50 52 54 56 57 59 62 62 62 58 57
43 40 37 35 39 38 35 35 34 32 32 30 30 30 29 31 36 44 48 52 50 46 42 28 21 36 43 41 41 43 47 49 50 51 54 55 56 57 60 63 64 63 61
42 39 39 41 40 36 30 32 33 30 29 31 36 36 41 46 54 56 55 55 60 46 43 41 41 41 38 48 51 50 51 52 55 58 61 63 62 62 62 60 62 60 58
39 39 41 40 37 36 31 30 25 29 34 39 54 61 65 69 69 61 61 41 43 35 33 31 35 39 39 55 64 62 62 63 61 60 63 64 65 67 70 69 65 64 61
27 37 41 38 35 33 32 33 31 35 40 42 42 47 46 44 42 37 40 30 18 22 37 35 34 32 42 54 62 66 71 69 72 72 71 72 72 70 69 69 71 67 58
39 38 33 31 33 32 34 35 43 41 40 41 40 33 33 30 28 27 11 22 30 31 36 35 43 53 57 65 69 76 74 80 81 74 70 71 68 70 65 61 65 69 64
31 25 28 27 30 34 33 33 37 35 28 33 22 28 20 22 25 22 24 26 30 35 39 46 56 64 69 74 79 80 88 84 80 74 69 68 66 67 66 59 55 60 59
34 33 31 22 24 36 41 34 31 27 28 30 28 20 16 16 26 28 31 40 47 49 54 59 66 69 73 77 83 84 81 74 67 66 66 62 63 64 66 65 56 54 53
27 29 34 31 29 39 30 28 26 26 28 26 29 29 32 38 24 37 31 40 54 56 62 65 68 75 78 77 80 77 70 65 62 62 58 57 63 58 61 60 60 55 50
26 29 28 29 34 29 26 25 25 27 28 26 29 31 31 32 40 36 57 63 49 47 45 58 70 75 79 77 74 60 59 66 66 62 66 66 62 64 57 52 52 57 53
29 27 25 25 27 28 23 22 24 27 30 32 33 35 35 30 34 39 50 57 63 66 42 49 49 51 57 59 62 64 65 60 60 65 66 64 64 67 65 53 46 48 58
26 27 25 24 25 26 24 24 25 27 29 33 36 40 47 55 53 49 50 60 60 57 58 58 51 46 47 47 51 62 63 73 77 76 73 73 68 64 71 61 51 40 46
25 25 23 22 23 23 24 26 29 32 36 41 48 55 61 61 53 47 49 56 68 67 58 53 53 52 49 51 57 67 68 73 84 80 75 74 70 64 63 67 56 47 39
20 21 21 21 22 24 28 31 35 40 45 53 59 62 62 62 57 55 50 50 58 68 64 59 61 54 57 56 66 74 72 75 81 71 62 63 61 63 64 64 60 55 46
20 19 21 23 27 31 35 39 44 50 54 56 59 60 62 60 57 53 47 49 52 63 75 52 59 60 61 64 71 83 73 76 73 70 65 60 60 58 62 62 65 58 53
20 23 26 30 33 37 41 45 49 53 56 59 61 62 64 62 54 43 43 46 52 55 74 76 69 62 63 66 74 69 69 64 62 62 60 60 58 59 58 60 65 63 58
24 28 32 36 39 42 47 52 54 57 61 65 65 64 56 45 45 45 47 52 59 65 72 83 69 63 61 59 64 70 62 53 51 54 61 60 57 59 58 58 64 67 61
28 32 36 41 46 51 55 58 59 61 63 64 63 59 53 46 47 48 51 57 64 62 62 71 73 62 61 62 60 62 51 52 50 48 51 47 50 54 54 53 61 67 66
41 45 49 52 56 58 59 58 58 59 60 56 52 51 52 55 54 54 55 58 60 65 65 72 76 70 66 61 59 60 53 42 48 46 44 45 49 49 47 43 49 61 68
49 50 51 52 53 54 52 55 58 57 55 55 54 55 57 59 63 64 64 62 59 61 61 66 76 73 71 58 52 47 53 65 53 44 41 39 34 29 34 35 37 51 66
44 44 45 49 52 51 49 48 47 50 50 50 51 51 56 60 62 59 59 59 60 67 70 74 80 81 88 74 68 65 68 66 59 33 34 39 37 38 32 30 28 44 62
35 38 49 53 47 39 34 34 36 41 44 48 52 52 57 54 55 57 58 66 71 72 76 83 91 98 97 96 91 81 75 69 64 43 39 45 36 37 30 29 24 36 54
32 42 49 39 34 28 26 30 35 39 44 46 49 50 55 51 53 62 70 76 79 81 85 91 97 99 97 87 78 77 70 61 51 47 37 39 29 30 27 25 18 31 45
28 33 36 36 35 31 28 32 36 40 44 44 44 47 52 60 62 56 60 74 81 86 82 77 77 79 79 72 67 72 59 54 52 46 35 31 27 19 17 18 17 30 31
28 26 29 34 31 32 31 29 32 39 44 46 49 55 56 59 64 64 70 77 84 87 78 69 67 67 64 53 54 57 67 69 53 36 37 28 24 13 8 14 18 21 23
Wind_Direction_500mb
220 220 223 226 229 231 231 232 233 236 240 244 247 249 252 251 250 254 258 263 267 272 273 274 267 284 295 303 296 294 293 288 291 294 292 291 287 279 282 281 283 280 276
223 226 229 234 237 237 236 235 236 240 246 247 248 246 249 249 250 261 272 288 293 288 284 270 269 282 305 310 298 291 287 288 288 289 289 289 286 281 282 281 280 280 281
223 228 232 239 242 239 238 240 239 239 242 246 243 237 235 244 265 278 282 291 295 281 269 263 289 278 289 307 291 289 289 289 287 286 286 285 284 283 281 279 279 278 278
229 232 236 241 242 239 242 245 247 247 253 256 257 258 263 270 279 287 278 288 277 273 285 271 265 288 275 302 298 295 295 294 292 289 287 285 282 279 280 280 278 277 275
238 239 239 242 246 246 250 248 247 261 268 278 282 276 271 273 281 284 288 271 276 257 263 285 270 270 282 295 293 293 298 298 296 292 288 286 285 282 278 276 274 273 274
226 236 239 241 246 245 250 249 261 266 282 282 285 287 281 274 271 283 290 253 274 258 270 281 271 283 279 270 285 291 296 298 298 294 291 287 285 282 281 278 273 270 271
243 230 229 233 244 242 248 255 271 269 269 276 290 286 292 283 284 293 280 259 289 283 283 279 277 284 292 290 290 293 294 296 295 293 291 289 286 278 275 276 273 269 267
235 226 229 224 225 238 244 270 268 254 256 273 288 305 306 297 285 286 288 286 292 294 288 283 287 289 289 290 294 296 298 298 296 294 291 284 281 277 271 273 271 269 267
245 230 214 228 238 255 270 256 244 245 259 266 280 268 277 286 303 290 287 292 296 296 291 285 285 286 289 293 297 299 300 299 297 294 289 285 280 276 271 267 270 267 266
239 222 215 228 252 260 254 240 242 249 252 262 266 266 268 271 290 297 292 301 297 292 291 290 289 292 296 299 301 301 299 297 296 294 293 289 279 276 272 269 264 262 261
232 218 219 225 234 243 240 246 257 252 261 257 261 271 274 274 276 271 286 292 289 292 291 295 294 296 301 303 303 302 297 299 296 296 294 287 281 272 273 271 264 258 257
221 225 232 240 243 246 255 254 255 251 254 260 265 268 271 272 274 278 281 284 290 296 294 294 294 296 299 300 301 297 297 297 300 299 298 294 287 273 269 269 264 257 257
233 230 231 241 244 244 244 244 250 258 266 271 275 277 280 281 281 281 283 285 286 285 287 291 294 295 296 295 296 297 299 298 298 298 295 289 286 278 267 268 266 259 251
230 233 231 229 233 236 246 259 265 269 274 278 281 282 284 285 284 281 281 289 291 288 285 284 287 291 294 294 290 298 301 299 300 301 297 289 281 276 268 259 259 260 256
222 222 225 228 236 249 259 265 270 274 278 281 283 284 286 286 286 286 283 282 284 288 285 286 286 288 292 292 290 296 297 297 299 300 299 295 288 275 271 257 249 250 248
215 220 234 248 260 268 273 277 280 282 282 283 286 288 289 289 287 286 282 280 278 280 286 287 289 289 289 289 294 300 297 296 296 296 297 292 288 283 271 257 246 245 242
237 249 259 266 270 274 277 279 281 283 285 286 288 290 290 290 288 283 283 283 282 282 286 287 287 289 287 289 294 296 296 294 294 295 292 293 288 283 279 257 245 238 236
267 270 272 275 279 284 286 288 289 291 292 292 292 291 290 287 283 285 286 284 284 285 283 286 289 290 289 288 289 294 294 291 291 287 284 288 283 279 279 264 245 234 232
278 284 287 289 291 292 293 295 295 293 293 291 291 289 287 284 283 283 285 286 284 282 282 284 287 289 289 292 291 298 295 292 292 297 302 299 292 280 280 274 248 231 227
298 297 297 297 296 295 296 297 296 295 294 292 290 287 286 287 283 286 289 287 285 285 285 286 289 288 289 294 286 284 295 291 295 296 295 298 293 286 278 273 251 233 222
299 300 301 301 300 300 300 297 295 294 294 294 294 298 293 293 296 296 292 285 282 283 282 279 282 283 286 283 275 280 273 297 294 293 296 303 293 285 282 271 247 230 220
307 308 307 307 307 305 299 294 292 297 300 298 298 304 306 305 302 304 298 293 287 283 278 278 278 275 283 280 279 273 276 285 283 286 286 295 295 285 278 259 238 223 217
319 321 320 314 310 310 305 302 301 301 302 306 308 309 306 304 304 299 298 296 289 284 278 277 274 276 276 283 284 276 276 279 281 279 283 291 298 282 274 260 231 218 214
329 334 329 329 327 324 318 309 306 311 310 309 307 306 303 309 307 310 306 301 298 293 288 286 284 287 286 284 282 276 275 279 278 277 274 282 298 283 265 263 213 218 214
329 334 334 332 327 333 328 317 316 313 312 314 314 317 318 315 316 313 307 306 302 297 300 297 293 292 289 284 278 268 261 258 263 265 260 273 294 282 271 238 211 211 210
330 331 332 330 332 338 338 331 324 322 327 331 335 334 332 326 318 313 305 303 301 304 305 301 296 295 291 285 283 258 248 244 245 255 268 246 284 260 275 196 215 207 207
Wind_Speed_850mb
38 36 36 37 38 41 44 42 39 36 35 34 34 34 32 31 30 29 30 30 30 32 37 41 37 29 28 35 39 41 41 45 47 50 53 51 52 56 52 53 52 54 52
40 38 37 35 37 41 41 40 37 34 32 34 35 33 32 32 33 31 32 32 42 40 39 36 22 24 28 38 46 43 42 45 50 52 54 56 57 59 62 62 62 58 57
43 40 37 35 39 38 35 35 34 32 32 30 30 30 29 31 36 44 48 52 50 46 42 28 21 36 43 41 41 43 47 49 50 51 54 55 56 57 60 63 64 63 61
42 39 39 41 40 36 30 32 33 30 29 31 36 36 41 46 54 56 55 55 60 46 43 41 41 41 38 48 51 50 51 52 55 58 61 63 62 62 62 60 62 60 58
39 39 41 40 37 36 31 30 25 29 34 39 54 61 65 69 69 61 61 41 43 35 33 31 35 39 39 55 64 62 62 63 61 60 63 64 65 67 70 69 65 64 61
27 37 41 38 35 33 32 33 31 35 40 42 42 47 46 44 42 37 40 30 18 22 37 35 34 32 42 54 62 66 71 69 72 72 71 72 72 70 69 69 71 67 58
39 38 33 31 33 32 34 35 43 41 40 41 40 33 33 30 28 27 11 22 30 31 36 35 43 53 57 65 69 76 74 80 81 74 70 71 68 70 65 61 65 69 64
31 25 28 27 30 34 33 33 37 35 28 33 22 28 20 22 25 22 24 26 30 35 39 46 56 64 69 74 79 80 88 84 80 74 69 68 66 67 66 59 55 60 59
34 33 31 22 24 36 41 34 31 27 28 30 28 20 16 16 26 28 31 40 47 49 54 59 66 69 73 77 83 84 81 74 67 66 66 62 63 64 66 65 56 54 53
27 29 34 31 29 39 30 28 26 26 28 26 29 29 32 38 24 37 31 40 54 56 62 65 68 75 78 77 80 77 70 65 62 62 58 57 63 58 61 60 60 55 50
26 29 28 29 34 29 26 25 25 27 28 26 29 31 31 32 40 36 57 63 49 47 45 58 70 75 79 77 74 60 59 66 66 62 66 66 62 64 57 52 52 57 53
29 27 25 25 27 28 23 22 24 27 30 32 33 35 35 30 34 39 50 57 63 66 42 49 49 51 57 59 62 64 65 60 60 65 66 64 64 67 65 53 46 48 58
26 27 25 24 25 26 24 24 25 27 29 33 36 40 47 55 53 49 50 60 60 57 58 58 51 46 47 47 51 62 63 73 77 76 73 73 68 64 71 61 51 40 46
25 25 23 22 23 23 24 26 29 32 36 41 48 55 61 61 53 47 49 56 68 67 58 53 53 52 49 51 57 67 68 73 84 80 75 74 70 64 63 67 56 47 39
20 21 21 21 22 24 28 31 35 40 45 53 59 62 62 62 57 55 50 50 58 68 64 59 61 54 57 56 66 74 72 75 81 71 62 63 61 63 64 64 60 55 46
20 19 21 23 27 31 35 39 44 50 54 56 59 60 62 60 57 53 47 49 52 63 75 52 59 60 61 64 71 83 73 76 73 70 65 60 60 58 62 62 65 58 53
20 23 26 30 33 37 41 45 49 53 56 59 61 62 64 62 54 43 43 46 52 55 74 76 69 62 63 66 74 69 69 64 62 62 60 60 58 59 58 60 65 63 58
24 28 32 36 39 42 47 52 54 57 61 65 65 64 56 45 45 45 47 52 59 65 72 83 69 63 61 59 64 70 62 53 51 54 61 60 57 59 58 58 64 67 61
28 32 36 41 46 51 55 58 59 61 63 64 63 59 53 46 47 48 51 57 64 62 62 71 73 62 61 62 60 62 51 52 50 48 51 47 50 54 54 53 61 67 66
41 45 49 52 56 58 59 58 58 59 60 56 52 51 52 55 54 54 55 58 60 65 65 72 76 70 66 61 59 60 53 42 48 46 44 45 49 49 47 43 49 61 68
49 50 51 52 53 54 52 55 58 57 55 55 54 55 57 59 63 64 64 62 59 61 61 66 76 73 71 58 52 47 53 65 53 44 41 39 34 29 34 35 37 51 66
44 44 45 49 52 51 49 48 47 50 50 50 51 51 56 60 62 59 59 59 60 67 70 74 80 81 88 74 68 65 68 66 59 33 34 39 37 38 32 30 28 44 62
35 38 49 53 47 39 34 34 36 41 44 48 52 52 57 54 55 57 58 66 71 72 76 83 91 98 97 96 91 81 75 69 64 43 39 45 36 37 30 29 24 36 54
32 42 49 39 34 28 26 30 35 39 44 46 49 50 55 51 53 62 70 76 79 81 85 91 97 99 97 87 78 77 70 61 51 47 37 39 29 30 27 25 18 31 45
28 33 36 36 35 31 28 32 36 40 44 44 44 47 52 60 62 56 60 74 81 86 82 77 77 79 79 72 67 72 59 54 52 46 35 31 27 19 17 18 17 30 31
28 26 29 34 31 32 31 29 32 39 44 46 49 55 56 59 64 64 70 77 84 87 78 69 67 67 64 53 54 57 67 69 53 36 37 28 24 13 8 14 18 21 23
Wind_Direction_850mb
220 220 223 226 229 231 231 232 233 236 240 244 247 249 252 251 250 254 258 263 267 272 273 274 267 284 295 303 296 294 293 288 291 294 292 291 287 279 282 281 283 280 276
223 226 229 234 237 237 236 235 236 240 246 247 248 246 249 249 250 261 272 288 293 288 284 270 269 282 305 310 298 291 287 288 288 289 289 289 286 281 282 281 280 280 281
223 228 232 239 242 239 238 240 239 239 242 246 243 237 235 244 265 278 282 291 295 281 269 263 289 278 289 307 291 289 289 289 287 286 286 285 284 283 281 279 279 278 278
229 232 236 241 242 239 242 245 247 247 253 256 257 258 263 270 279 287 278 288 277 273 285 271 265 288 275 302 298 295 295 294 292 289 287 285 282 279 280 280 278 277 275
238 239 239 242 246 246 250 248 247 261 268 278 282 276 271 273 281 284 288 271 276 257 263 285 270 270 282 295 293 293 298 298 296 292 288 286 285 282 278 276 274 273 274
226 236 239 241 246 245 250 249 261 266 282 282 285 287 281 274 271 283 290 253 274 258 270 281 271 283 279 270 285 291 296 298 298 294 291 287 285 282 281 278 273 270 271
243 230 229 233 244 242 248 255 271 269 269 276 290 286 292 283 284 293 280 259 289 283 283 279 277 284 292 290 290 293 294 296 295 293 291 289 286 278 275 276 273 269 267
235 226 229 224 225 238 244 270 268 254 256 273 288 305 306 297 285 286 288 286 292 294 288 283 287 289 289 290 294 296 298 298 296 294 291 284 281 277 271 273 271 269 267
245 230 214 228 238 255 270 256 244 245 259 266 280 268 277 286 303 290 287 292 296 296 291 285 285 286 289 293 297 299 300 299 297 294 289 285 280 276 271 267 270 267 266
239 222 215 228 252 260 254 240 242 249 252 262 266 266 268 271 290 297 292 301 297 292 291 290 289 292 296 299 301 301 299 297 296 294 293 289 279 276 272 269 264 262 261
232 218 219 225 234 243 240 246 257 252 261 257 261 271 274 274 276 271 286 292 289 292 291 295 294 296 301 303 303 302 297 299 296 296 294 287 281 272 273 271 264 258 257
221 225 232 240 243 246 255 254 255 251 254 260 265 268 271 272 274 278 281 284 290 296 294 294 294 296 299 300 301 297 297 297 300 299 298 294 287 273 269 269 264 257 257
233 230 231 241 244 244 244 244 250 258 266 271 275 277 280 281 281 281 283 285 286 285 287 291 294 295 296 295 296 297 299 298 298 298 295 289 286 278 267 268 266 259 251
230 233 231 229 233 236 246 259 265 269 274 278 281 282 284 285 284 281 281 289 291 288 285 284 287 291 294 294 290 298 301 299 300 301 297 289 281 276 268 259 259 260 256
222 222 225 228 236 249 259 265 270 274 278 281 283 284 286 286 286 286 283 282 284 288 285 286 286 288 292 292 290 296 297 297 299 300 299 295 288 275 271 257 249 250 248
215 220 234 248 260 268 273 277 280 282 282 283 286 288 289 289 287 286 282 280 278 280 286 287 289 289 289 289 294 300 297 296 296 296 297 292 288 283 271 257 246 245 242
237 249 259 266 270 274 277 279 281 283 285 286 288 290 290 290 288 283 283 283 282 282 286 287 287 289 287 289 294 296 296 294 294 295 292 293 288 283 279 257 245 238 236
267 270 272 275 279 284 286 288 289 291 292 292 292 291 290 287 283 285 286 284 284 285 283 286 289 290 289 288 289 294 294 291 291 287 284 288 283 279 279 264 245 234 232
278 284 287 289 291 292 293 295 295 293 293 291 291 289 287 284 283 283 285 286 284 282 282 284 287 289 289 292 291 298 295 292 292 297 302 299 292 280 280 274 248 231 227
298 297 297 297 296 295 296 297 296 295 294 292 290 287 286 287 283 286 289 287 285 285 285 286 289 288 289 294 286 284 295 291 295 296 295 298 293 286 278 273 251 233 222
299 300 301 301 300 300 300 297 295 294 294 294 294 298 293 293 296 296 292 285 282 283 282 279 282 283 286 283 275 280 273 297 294 293 296 303 293 285 282 271 247 230 220
307 308 307 307 307 305 299 294 292 297 300 298 298 304 306 305 302 304 298 293 287 283 278 278 278 275 283 280 279 273 276 285 283 286 286 295 295 285 278 259 238 223 217
319 321 320 314 310 310 305 302 301 301 302 306 308 309 306 304 304 299 298 296 289 284 278 277 274 276 276 283 284 276 276 279 281 279 283 291 298 282 274 260 231 218 214
329 334 329 329 327 324 318 309 306 311 310 309 307 306 303 309 307 310 306 301 298 293 288 286 284 287 286 284 282 276 275 279 278 277 274 282 298 283 265 263 213 218 214
329 334 334 332 327 333 328 317 316 313 312 314 314 317 318 315 316 313 307 306 302 297 300 297 293 292 289 284 278 268 261 258 263 265 260 273 294 282 271 238 211 211 210
330 331 332 330 332 338 338 331 324 322 327 331 335 334 332 326 318 313 305 303 301 304 305 301 296 295 291 285 283 258 248 244 245 255 268 246 284 260 275 196 215 207 207